Wind_Speed
37 38 39 35 33 31 29 27 27 27 24 24 26 24 25 24 21 19 19 21 20 22 21 21 27 24 26 24 29 34 34 33 29 33 31 29 28 31 33 35 38 38 41 39 39 45 50
42 40 40 40 38 37 34 33 31 31 28 28 28 23 24 26 24 21 21 21 25 23 25 24 22 24 25 28 30 29 29 29 28 31 32 29 31 32 36 39 40 42 40 38 40 48 52
46 44 45 44 42 39 39 40 36 34 33 31 28 27 21 21 28 19 26 27 30 28 29 28 23 28 31 29 30 32 32 33 35 30 35 40 38 38 41 38 44 44 46 40 41 48 51
50 48 48 49 48 45 42 42 42 40 38 36 38 37 35 30 29 27 32 36 35 35 35 36 29 31 29 35 31 30 33 30 29 32 34 37 38 40 42 43 47 48 47 42 47 51 52
50 50 51 51 52 50 48 47 47 43 41 43 39 37 33 31 31 32 36 38 41 40 36 35 36 39 35 34 31 30 31 31 36 36 37 40 42 44 46 49 51 52 48 51 53 49 55
48 49 48 48 51 55 53 51 53 49 44 40 41 38 35 37 35 34 34 38 37 32 35 36 36 39 39 37 38 36 34 35 37 43 43 45 48 50 51 51 48 48 47 49 49 50 52
47 48 49 51 51 49 49 49 47 47 47 45 42 43 44 44 40 39 33 39 39 30 31 26 29 33 39 40 40 40 39 42 41 42 50 49 48 49 53 54 57 54 51 50 52 52 54
50 51 51 54 53 53 53 53 50 49 49 48 45 45 47 44 46 39 41 32 30 28 30 23 23 33 38 31 32 27 43 44 48 47 50 55 53 54 62 57 56 53 54 56 60 64 63
51 54 55 55 58 56 56 56 55 52 53 53 49 46 54 47 48 39 36 33 33 30 30 36 43 45 41 38 43 41 45 46 51 51 53 55 58 56 61 62 59 59 66 66 62 66 70
52 52 56 57 57 62 60 58 57 55 51 50 50 49 46 45 46 39 34 29 32 35 40 42 55 51 52 52 56 58 53 55 58 59 58 60 64 67 65 62 62 66 67 66 70 73 76
62 57 54 54 57 57 58 59 57 56 56 52 53 58 59 56 47 45 45 48 44 43 46 52 55 55 55 57 63 63 64 63 61 66 67 67 66 67 69 67 69 70 73 76 81 85 80
65 61 59 57 56 58 60 64 60 57 58 58 59 61 62 63 57 55 54 52 53 51 52 59 61 63 64 65 66 67 69 69 69 69 69 66 67 68 73 76 79 82 87 90 91 91 90
72 68 65 63 60 59 60 62 62 60 58 56 60 64 65 66 68 63 56 56 57 53 52 57 62 65 65 62 65 66 66 69 71 70 71 74 82 79 78 83 84 85 89 93 92 93 88
64 73 71 70 66 64 62 65 63 62 58 55 59 56 54 61 68 66 64 62 63 55 64 66 67 65 65 68 67 70 73 77 80 83 82 78 73 84 90 91 92 93 99 101 96 100 103
70 65 74 75 75 71 70 69 70 73 70 70 69 65 66 67 61 60 61 68 62 68 71 73 72 66 68 73 73 76 80 79 82 84 81 83 85 92 92 100 104 104 104 107 104 105 103
74 72 64 73 76 81 78 77 76 76 77 74 75 74 73 72 73 75 73 68 68 73 72 76 77 77 73 75 76 79 81 84 89 87 88 89 92 91 98 99 104 104 108 110 110 115 114
94 82 81 74 73 74 81 86 84 83 81 81 75 80 77 79 81 80 76 76 76 81 84 82 83 82 84 85 85 84 86 87 90 92 94 93 97 100 104 107 110 113 117 116 114 115 114
105 102 92 85 82 79 75 80 83 86 88 89 85 80 81 82 85 83 83 85 87 88 90 90 89 90 87 91 87 88 89 92 99 98 100 105 106 101 104 111 110 112 118 124 122 115 123
104 105 102 101 94 93 89 88 86 84 94 98 92 90 87 90 87 90 92 92 89 92 95 96 93 92 96 99 106 103 98 99 103 103 101 104 106 107 110 111 116 120 119 123 126 126 127
110 110 108 114 105 98 100 100 97 92 88 96 101 100 97 98 99 96 98 94 93 95 99 101 102 102 103 105 106 105 107 108 108 106 110 111 106 108 113 117 117 115 116 122 127 130 134
122 116 119 120 115 113 108 106 106 105 105 99 96 101 99 100 100 102 104 99 97 99 100 96 96 101 105 101 99 99 98 97 97 103 106 111 116 121 124 123 124 125 122 124 131 137 132
131 127 129 133 125 121 116 113 111 111 110 109 109 99 103 106 108 108 107 104 107 108 106 102 101 102 104 105 106 112 119 119 122 122 121 120 125 124 117 125 128 122 124 131 131 134 132
133 138 138 139 137 129 126 122 115 113 121 117 117 119 120 111 110 110 114 113 110 112 111 111 111 108 109 113 116 118 122 123 118 121 127 127 125 126 128 126 129 120 131 132 132 123 102
136 135 137 147 145 140 135 134 128 123 124 122 119 121 119 115 110 112 116 114 117 113 118 121 122 121 123 122 118 121 124 124 124 122 125 119 123 129 130 130 124 129 122 119 114 96 90
146 139 138 143 150 147 145 146 141 136 136 127 123 127 130 123 114 111 111 113 117 121 117 120 120 125 124 122 123 125 124 124 119 116 125 124 125 127 128 128 122 107 108 104 95 84 79
154 153 144 144 144 147 150 150 145 144 150 141 134 130 134 141 133 125 116 117 119 117 121 122 125 126 129 129 129 130 132 132 127 118 115 118 123 125 131 130 117 102 95 90 84 71 72
157 157 156 147 150 149 152 154 154 158 158 156 151 146 142 137 135 126 131 128 123 128 131 128 130 132 135 132 132 131 130 132 127 120 116 118 127 129 130 122 105 93 90 84 76 65 65
160 156 163 158 159 160 158 164 158 163 168 170 165 164 155 151 140 138 156 141 132 130 129 134 140 133 132 133 128 130 130 123 119 118 112 119 123 118 116 105 93 90 85 81 74 68 60
155 155 161 169 164 163 167 169 171 170 177 183 184 167 162 160 163 156 138 139 131 130 131 139 126 126 129 126 125 125 119 117 115 111 119 110 110 102 97 90 86 82 79 76 71 64 60
Wind_Direction
262 268 268 266 268 265 261 256 262 260 259 266 273 282 284 283 287 290 301 299 319 316 309 310 292 293 296 291 302 312 312 316 333 333 335 338 336 334 332 337 333 325 329 329 324 326 330
265 265 262 262 259 261 262 260 257 257 258 264 269 274 278 284 286 288 292 299 297 302 300 295 318 311 310 316 314 319 323 325 328 325 326 326 327 327 326 331 333 325 326 325 319 324 326
263 266 266 267 263 263 261 256 257 263 265 268 266 265 263 272 283 279 299 288 285 286 285 293 301 298 308 314 312 313 319 318 315 315 320 320 326 327 325 322 332 331 331 325 316 322 323
260 262 262 266 266 263 260 260 259 264 274 267 273 274 273 276 281 284 290 292 291 291 295 302 292 294 296 301 308 307 309 312 311 307 315 320 321 325 327 323 325 328 328 324 323 324 319
263 262 264 263 265 268 264 261 266 270 276 275 266 268 265 265 270 272 280 288 293 290 292 293 294 297 302 304 306 306 314 310 317 321 321 321 323 324 325 324 324 324 327 323 325 320 324
259 258 260 262 265 264 263 266 267 267 266 271 273 263 261 260 263 268 281 286 284 287 289 292 294 296 297 295 298 300 309 316 318 323 324 325 322 320 320 325 327 326 329 328 324 322 325
262 262 262 261 258 259 263 264 264 263 263 265 269 261 259 270 263 269 272 275 281 294 297 289 301 313 307 298 298 304 312 317 317 321 326 319 321 324 323 322 326 329 327 328 325 321 323
261 263 267 263 264 258 261 262 262 262 262 262 267 265 268 266 264 267 274 284 288 285 301 299 305 323 315 322 324 317 320 323 321 320 323 327 322 324 327 321 321 324 324 320 318 320 319
264 266 263 264 261 260 261 260 262 263 261 263 266 269 270 264 258 269 273 281 290 286 297 304 309 308 311 309 313 309 309 318 320 321 316 320 319 320 322 325 319 318 322 316 314 317 317
262 263 264 263 262 259 257 258 258 258 260 261 260 262 256 256 259 265 265 276 277 275 286 289 301 298 304 304 312 314 307 311 316 316 316 316 318 315 316 316 316 314 318 314 314 314 314
259 258 260 258 262 260 260 257 257 258 260 261 264 266 270 261 257 259 264 277 280 283 282 289 294 294 301 304 307 307 310 309 310 312 312 315 313 314 313 315 315 312 314 315 315 315 314
259 256 256 258 259 259 260 259 259 258 259 257 255 262 262 260 259 262 267 271 279 284 287 287 293 289 293 298 298 306 305 307 306 308 308 310 308 307 306 306 307 307 309 314 313 314 313
262 257 257 256 256 260 260 256 254 253 255 257 261 263 260 263 263 268 269 276 278 284 288 290 289 292 291 293 295 297 299 303 303 302 300 301 306 303 302 303 302 304 305 311 310 314 316
268 260 256 255 256 255 260 253 253 252 250 255 265 266 267 269 261 264 270 276 278 279 283 281 287 288 291 290 295 298 297 297 300 300 300 301 303 303 304 303 304 303 306 310 310 313 312
269 268 260 258 257 257 256 254 257 256 257 259 264 260 266 269 267 264 267 272 280 274 279 279 280 284 285 288 290 296 295 296 298 301 299 302 302 304 302 304 303 303 305 307 308 310 315
268 268 263 262 264 260 257 257 257 257 257 259 259 259 261 264 267 267 268 267 270 273 271 273 279 281 283 284 288 290 294 296 294 296 299 302 302 302 303 303 304 306 303 303 306 309 309
269 269 269 269 263 266 264 260 258 258 257 258 259 260 256 261 264 265 268 268 266 268 269 270 275 277 281 284 283 286 286 289 290 291 292 293 298 301 304 303 302 303 304 304 306 309 309
264 271 273 271 271 269 265 261 265 260 260 258 257 258 257 260 263 265 267 270 270 272 271 272 272 274 276 278 280 283 286 288 287 287 289 290 294 296 297 303 303 304 304 306 309 310 312
269 262 268 276 270 269 273 269 265 268 261 259 260 260 259 262 264 266 268 267 269 269 270 269 273 273 275 279 280 280 283 283 286 287 290 290 293 293 294 297 300 301 303 304 304 308 312
264 267 266 271 273 271 274 274 274 268 269 269 265 263 263 265 265 266 267 268 269 272 272 272 273 273 275 277 280 281 283 285 286 287 289 292 296 296 297 298 299 303 303 305 306 309 308
262 262 264 266 272 267 272 272 270 269 267 267 269 262 263 265 264 265 266 268 270 269 270 269 271 273 275 279 279 282 282 283 288 289 289 291 296 296 298 299 302 306 306 305 306 308 311
262 262 265 268 267 265 274 271 274 272 268 262 271 266 263 263 264 264 266 269 268 268 268 267 268 270 273 275 275 279 284 286 286 288 288 288 291 296 298 295 299 305 307 304 306 306 307
262 262 267 265 267 267 269 275 270 271 269 270 269 273 272 270 273 272 268 273 266 269 268 268 269 269 271 274 278 280 284 285 285 287 290 289 289 290 297 300 300 309 303 303 304 304 301
264 263 265 264 264 268 267 272 275 272 269 271 271 268 266 272 270 272 276 274 270 271 269 272 272 270 276 278 279 280 282 284 285 287 285 291 292 292 296 300 303 303 302 301 300 298 298
267 264 265 263 263 266 266 271 271 275 277 271 269 271 274 270 269 264 273 270 270 269 269 271 274 272 274 276 278 280 282 284 284 285 288 291 293 296 298 301 303 302 298 297 295 294 294
265 266 267 265 264 267 268 270 272 275 278 275 273 273 273 273 274 273 272 270 268 267 268 271 272 274 276 278 280 278 278 280 282 285 287 292 295 297 298 298 299 299 296 293 292 293 293
262 263 264 263 262 265 266 268 271 271 276 276 277 275 274 274 275 272 277 275 271 272 274 269 272 272 274 275 277 278 279 280 283 285 289 291 293 294 295 294 296 295 291 290 290 289 290
261 259 261 263 263 264 265 267 269 270 273 273 274 273 272 272 274 275 275 274 271 269 270 267 268 270 273 273 275 275 279 284 284 287 291 294 294 293 291 291 291 289 288 288 288 288 287
258 258 256 258 259 259 259 265 267 266 267 267 267 268 268 269 271 270 267 270 268 265 265 266 267 269 269 271 274 277 280 283 285 289 291 290 291 289 288 286 285 284 284 286 286 285 283
Height
10809 10809 10810 10811 10812 10812 10812 10812 10812 10813 10811 10811 10811 10810 10810 10809 10808 10806 10805 10802 10800 10798 10794 10791 10788 10786 10784 10782 10782 10779 10777 10774 10772 10769 10765 10762 10759 10757 10753 10750 10746 10742 10739 10735 10730 10726 10721
10801 10803 10804 10805 10806 10806 10806 10806 10807 10807 10806 10806 10805 10804 10804 10803 10803 10801 10799 10796 10793 10790 10787 10785 10783 10781 10780 10778 10776 10774 10772 10769 10767 10764 10762 10759 10755 10752 10749 10745 10741 10736 10733 10729 10726 10721 10716
10793 10794 10796 10797 10799 10799 10800 10800 10800 10800 10801 10801 10800 10799 10798 10797 10796 10794 10792 10788 10787 10784 10781 10778 10778 10776 10774 10772 10770 10767 10765 10764 10761 10759 10757 10753 10750 10746 10743 10740 10736 10731 10726 10723 10719 10715 10709
10785 10786 10787 10788 10790 10792 10792 10792 10792 10793 10793 10793 10793 10792 10791 10790 10788 10787 10784 10782 10781 10779 10777 10775 10773 10771 10769 10766 10763 10761 10759 10757 10754 10752 10749 10746 10743 10740 10736 10733 10728 10724 10720 10716 10713 10708 10702
10776 10778 10780 10780 10781 10782 10784 10785 10784 10784 10785 10784 10784 10784 10783 10782 10781 10779 10777 10775 10773 10772 10770 10769 10766 10764 10762 10760 10757 10754 10753 10750 10748 10745 10741 10738 10736 10732 10728 10725 10721 10716 10713 10710 10706 10700 10693
10766 10767 10769 10771 10772 10773 10775 10776 10777 10777 10776 10776 10776 10776 10775 10774 10772 10771 10771 10769 10766 10765 10765 10762 10758 10756 10753 10751 10749 10746 10744 10742 10739 10737 10734 10730 10728 10724 10720 10717 10714 10710 10705 10701 10699 10696 10688
10755 10756 10757 10759 10761 10762 10763 10763 10764 10766 10767 10767 10766 10766 10767 10767 10765 10764 10763 10762 10759 10757 10755 10753 10751 10750 10746 10742 10740 10739 10738 10736 10733 10730 10727 10722 10719 10716 10713 10709 10705 10701 10697 10694 10688 10686 10683
10744 10746 10747 10747 10748 10750 10751 10751 10752 10754 10755 10756 10756 10757 10758 10759 10758 10756 10755 10752 10750 10747 10745 10744 10743 10742 10741 10738 10735 10732 10731 10728 10726 10722 10718 10714 10710 10707 10703 10699 10696 10693 10690 10687 10683 10679 10676
10733 10734 10735 10736 10737 10737 10738 10739 10740 10742 10743 10745 10746 10747 10747 10747 10749 10750 10747 10745 10743 10738 10738 10736 10733 10733 10732 10730 10728 10724 10722 10719 10716 10712 10709 10704 10700 10697 10693 10690 10686 10681 10681 10676 10673 10667 10659
10719 10722 10723 10724 10725 10725 10726 10727 10728 10729 10731 10733 10735 10736 10736 10736 10737 10738 10738 10736 10735 10732 10730 10726 10724 10722 10722 10720 10717 10714 10712 10709 10706 10703 10699 10696 10690 10685 10679 10676 10673 10668 10664 10662 10658 10654 10649
10705 10707 10708 10711 10711 10712 10714 10715 10715 10717 10719 10721 10724 10725 10726 10725 10725 10726 10725 10726 10724 10725 10723 10721 10715 10712 10711 10710 10707 10704 10702 10700 10696 10693 10689 10685 10681 10676 10670 10665 10662 10658 10653 10651 10646 10640 10635
10691 10693 10693 10696 10698 10699 10700 10702 10703 10704 10706 10707 10709 10711 10713 10711 10713 10715 10716 10714 10712 10711 10711 10706 10704 10701 10700 10699 10696 10693 10690 10689 10688 10683 10679 10674 10672 10666 10659 10653 10648 10644 10636 10634 10630 10623 10619
10677 10679 10680 10682 10683 10683 10684 10687 10689 10690 10692 10694 10697 10699 10699 10698 10698 10701 10702 10702 10701 10700 10696 10693 10689 10689 10689 10686 10685 10681 10678 10673 10672 10673 10666 10662 10654 10648 10642 10635 10630 10625 10618 10612 10614 10607 10598
10663 10664 10665 10666 10668 10670 10671 10672 10674 10675 10676 10679 10683 10686 10685 10685 10684 10686 10686 10688 10689 10688 10682 10677 10674 10675 10674 10670 10671 10668 10665 10658 10654 10652 10653 10652 10646 10636 10628 10619 10612 10606 10596 10587 10585 10586 10585
10646 10647 10650 10650 10652 10654 10655 10657 10658 10660 10661 10663 10666 10670 10672 10670 10670 10670 10671 10674 10677 10673 10666 10660 10659 10661 10659 10654 10651 10652 10650 10646 10637 10631 10629 10632 10632 10624 10612 10602 10593 10591 10581 10572 10564 10563 10558
10628 10630 10632 10635 10635 10636 10638 10639 10641 10641 10642 10645 10647 10651 10655 10651 10652 10653 10654 10661 10659 10654 10648 10643 10645 10646 10646 10641 10638 10634 10634 10633 10624 10618 10611 10613 10613 10608 10596 10585 10576 10570 10564 10555 10546 10541 10536
10602 10609 10613 10613 10615 10617 10619 10621 10621 10622 10623 10625 10626 10630 10637 10634 10631 10631 10639 10640 10639 10632 10627 10628 10629 10626 10626 10623 10620 10619 10620 10614 10608 10601 10595 10592 10595 10594 10581 10569 10560 10551 10545 10534 10525 10516 10506
10578 10579 10586 10590 10592 10595 10599 10600 10601 10603 10604 10603 10605 10609 10616 10614 10613 10616 10617 10617 10616 10614 10609 10607 10609 10607 10603 10600 10598 10599 10598 10595 10587 10584 10579 10570 10574 10574 10563 10550 10542 10534 10525 10515 10505 10496 10486
10551 10554 10557 10561 10568 10571 10573 10576 10579 10579 10582 10579 10585 10589 10595 10592 10594 10594 10593 10594 10590 10591 10587 10585 10586 10583 10581 10579 10574 10578 10576 10572 10565 10560 10558 10550 10551 10547 10540 10528 10522 10514 10504 10494 10483 10473 10467
10524 10529 10531 10533 10540 10545 10548 10550 10550 10553 10554 10555 10561 10567 10574 10570 10571 10569 10566 10573 10572 10570 10564 10561 10562 10561 10555 10552 10551 10554 10552 10544 10543 10538 10530 10524 10524 10519 10514 10504 10498 10494 10487 10474 10460 10451 10440
10494 10501 10505 10508 10512 10518 10522 10524 10524 10524 10525 10528 10537 10545 10551 10548 10547 10541 10542 10554 10551 10543 10538 10539 10539 10534 10529 10532 10529 10523 10524 10523 10520 10515 10508 10503 10504 10490 10491 10478 10468 10470 10462 10445 10431 10421 10409
10461 10467 10473 10477 10485 10490 10494 10497 10490 10491 10485 10493 10507 10515 10520 10523 10521 10520 10519 10533 10523 10517 10516 10519 10514 10508 10507 10510 10501 10499 10495 10497 10499 10493 10483 10475 10474 10466 10470 10450 10443 10449 10442 10418 10408 10400 10389
10426 10434 10440 10443 10450 10457 10462 10466 10468 10462 10459 10468 10476 10480 10484 10496 10493 10496 10502 10494 10494 10490 10493 10492 10489 10486 10484 10480 10476 10474 10474 10474 10472 10465 10457 10450 10443 10432 10438 10427 10419 10427 10414 10396 10383 10371 10362
10390 10398 10404 10410 10415 10425 10428 10431 10431 10431 10433 10439 10447 10445 10447 10463 10466 10471 10469 10468 10465 10458 10463 10466 10459 10461 10460 10453 10452 10452 10449 10450 10448 10440 10432 10424 10415 10405 10402 10398 10399 10397 10389 10373 10363 10353 10343
10348 10357 10364 10374 10383 10389 10393 10394 10397 10398 10393 10399 10414 10415 10406 10414 10432 10446 10439 10434 10433 10433 10436 10433 10431 10427 10423 10424 10420 10422 10421 10420 10419 10419 10412 10399 10387 10376 10368 10363 10370 10375 10357 10348 10343 10342 10327
10306 10315 10324 10330 10342 10348 10353 10360 10361 10364 10359 10360 10372 10378 10378 10378 10400 10403 10407 10409 10406 10402 10398 10404 10399 10393 10392 10391 10386 10386 10391 10395 10392 10390 10383 10372 10362 10353 10344 10333 10339 10345 10331 10323 10318 10320 10305
10272 10280 10288 10297 10305 10315 10319 10323 10328 10329 10331 10324 10335 10336 10341 10341 10357 10363 10368 10378 10375 10376 10368 10373 10368 10362 10358 10361 10355 10354 10355 10357 10358 10359 10358 10349 10339 10328 10316 10304 10319 10310 10301 10299 10299 10299 10292
10229 10243 10250 10258 10270 10273 10285 10289 10294 10295 10295 10288 10296 10299 10296 10303 10314 10335 10333 10336 10343 10345 10339 10339 10333 10340 10335 10330 10333 10323 10322 10325 10324 10328 10323 10316 10309 10303 10293 10286 10290 10283 10279 10274 10275 10274 10272
10191 10201 10209 10219 10230 10241 10254 10255 10257 10260 10261 10251 10256 10265 10259 10259 10279 10291 10303 10302 10303 10304 10308 10299 10310 10307 10304 10309 10301 10294 10301 10301 10300 10302 10293 10287 10282 10274 10270 10266 10262 10262 10261 10256 10253 10253 10252